Location: ????????
(60.5616°N, 46.8254°E)
Time: 07:18:42
(UTC+00:00)

USA 229 DEB - Pass Details

Date: 18 February 2020
Orbit: 988 x 1224 km, 63.4° (Epoch: 26 March)

Event Time Altitude Azimuth Distance (km) Brightness Sun altitude
Rises 18:33:45 0° 246° (WSW) 3,769 6.8 -33.6°
Reaches altitude 10° 18:36:18 10° 247° (WSW) 2,845 6.1 -33.8°
Enters shadow 18:40:54 48° 252° (WSW) 1,370 4.3 -34.2°
